Tracking 29892 objects as of 21-Nov-2024
HD Live streaming from Space Station
objects crossing your sky now

STARLINK-1852

Track STARLINK-1852 now!
10-day predictions
STARLINK-1852 is classified as:


NORAD ID: 47139
Int'l Code: 2020-088T
Perigee: 467.1 km
Apogee: 468.9 km
Inclination: 53.1 °
Period: 93.8 minutes
Semi major axis: 6838 km
RCS: Unknown
Launch date: November 25, 2020
Source: United States (US)
Launch site: AIR FORCE EASTERN TEST RANGE (AFETR)
Your satellite tracking list
Your tracking list is empty




NASA's NSSDC Master Catalog

Two Line Element Set (TLE):
1 47139U 20088T   24325.91668981  .00265709  00000-0  74497-2 0  9998
2 47139  53.0531 268.9706 0001309  99.7584 106.5739 15.35030004220721
Source of the keplerian elements: AFSPC